Погода в Бурмакине

Россия / Кировская область     58°19′24″N   49°47′57″E
темп.,
°C
ветер,
м/с
пор.,
м/с
влажн.,
%
обл.,
%
осадки,
мм/ч
давл.,
гПа
погр.,
м
23 июня, ср
ср2300:00+21з36786 0.0 1018103
03:00+19з23865 0.0 101860
06:00+23сз25671 0.0 1018212
09:00+28сз34461 0.0 1017674
12:00+31сз463726 0.0 10172383
15:00+31ссз4538100 0.0 10172062
18:00+28з235833 0.0 1017137
21:00+22сз017826 0.0 101811
24 июня, чт
чт2400:00+20з2280100 0.1 101815
03:00+19з238689 0.1 101862
06:00+23з247212 0.0 1018167
09:00+29зсз46491 0.0 1017800
12:00+26зсз2465100 0.0 101691
15:00+31з374697 0.0 10161843
18:00+20вюв5795100 13.6 1015129
21:00+19ююз3697100 20.0 1015132
25 июня, пт
пт2500:00+18зюз389699 0.3 1014171
03:00+17зюз3109633 0.4 1014215
06:00+21з25898 0.0 1013169
09:00+28зсз355673 0.0 1013468
12:00+31сз35465 0.0 10131424
15:00+32сз46418 0.0 10122365
18:00+29зсз495523 0.0 1011529
21:00+18ссз259691 1.4 1012123
26 июня, сб
сб2600:00+18сз249493 0.0 101280
03:00+16сз26972 0.0 1013125
06:00+20ссз248797 0.0 1013217
09:00+25с22627 0.0 1013718
12:00+28с22495 0.0 10131284
15:00+29с234735 0.0 10121736
18:00+27сз0265100 0.1 1012176
21:00+19зюз2494100 2.8 101389
27 июня, вс
вс2700:00+18з249875 0.0 101296
03:00+17сз119925 0.0 101330
06:00+20в01675 0.0 1015153
09:00+26юв11515 0.0 1014840
12:00+29ююв124111 0.0 10141521
15:00+29зюз134235 0.0 10141839
18:00+27ююв2462100 0.1 1013262
21:00+20юз0191100 1.7 101313